Location: Unspecified
(0.0000°N, 0.0000°E)
Time: 11:08:54
(UTC+00:00)

ACS3 Solar Sail - Pass Details

Date: 18 May 2025
Orbit: 935 x 1009 km, 97.5° (Epoch: 13 May)

Event Time Altitude Azimuth Distance (km) Brightness Sun altitude
Rises 18:31:40 0° 200° (SSW) 3,668 4.8 -8.3°
Reaches altitude 10° 18:35:07 10° 220° (SW) 2,704 4.4 -9.1°
Maximum altitude 18:38:46 17° 257° (WSW) 2,238 4.6 -9.9°
Drops below altitude 10° 18:42:24 10° 295° (WNW) 2,669 5.7 -10.8°
Sets 18:45:47 0° 315° (NW) 3,600 6.1 -11.6°
